Weather History for LIEB - December, 2013

Change the Weather History Date:

Monday, December 16, 2013

  Actual Average (LIED) Record (LIED)
Temperature  
Mean Temperature 52 °F -  
Max Temperature 57 °F 57 °F 65 °F (2012)
Min Temperature 48 °F 48 °F 30 °F (2010)
Degree Days  
Heating Degree Days 12    
Growing Degree Days 2 (Base 50)    
Moisture  
Dew Point 45 °F    
Average Humidity 71    
Maximum Humidity 88    
Minimum Humidity 56    
Precipitation  
Precipitation 0.00 in 0.07 in - ()
Sea Level Pressure  
Sea Level Pressure 30.53 in    
Wind  
Wind Speed 11 mph ()    
Max Wind Speed 20 mph    
Max Gust Speed -    
Visibility 11.4 miles    
Events      
Averages and records for this station are not official NWS values.
T = Trace of Precipitation, MM = Missing Value Source: Averaged Metar Reports

Daily Weather History Graph

Daily Weather History Graph

Search for Another Location

Airport or City:

Trip Planner

Search our weather history database for the weather conditions in past years. The results will help you decide how hot, cold, wet, or windy it might be!

Date:

Astronomy

Dec. 16, 2013 Rise Set
Actual Time 7:36 AM CET 4:57 PM CET
Civil Twilight 7:05 AM CET 5:27 PM CET
Nautical Twilight 6:31 AM CET 6:01 PM CET
Astronomical Twilight 5:58 AM CET 6:34 PM CET
Moon 4:34 PM CET (12/16) 6:30 AM CET (12/16)
Length of Visible Light 10h 22m
Length of Day
9h 21m
Waxing Gibbous, 99% of the Moon is Illuminated
Dec 16
Waxing Gibbous
Dec 17
Full
Dec 25
Last Quarter
Jan 1
New
Jan 8
First Quarter

Hourly Weather History & Observations

Time (CET) Temp. Dew Point Humidity Pressure Visibility Wind Dir Wind Speed Gust Speed Precip Events Conditions
12:55 AM 51.8 °F 48.2 °F 88% 30.54 in - North 12.7 mph - N/A   Clear
1:55 AM 50.0 °F 46.4 °F 87% 30.54 in - NNW 11.5 mph - N/A   Clear
2:00 AM 51 °F 47 °F 80% 30.56 in 12 mi NNW 11.5 mph - -  
2:55 AM 50.0 °F 44.6 °F 82% 30.54 in - NNW 15.0 mph - N/A   Clear
3:00 AM 50 °F 45 °F 76% 30.56 in 12 mi NNW 15.0 mph - -  
3:55 AM 50.0 °F 44.6 °F 82% 30.54 in - NNW 13.8 mph - N/A   Clear
4:55 AM 50.0 °F 42.8 °F 76% 30.54 in - NW 12.7 mph - N/A   Clear
5:00 AM 50 °F 43 °F 71% 30.55 in 12 mi NW 12.7 mph - -  
5:55 AM 50.0 °F 42.8 °F 76% 30.54 in - NNW 10.4 mph - N/A   Clear
6:00 AM 50 °F 43 °F 70% 30.56 in 12 mi NNW 10.4 mph - -  
6:55 AM 50.0 °F 42.8 °F 76% 30.54 in - NNW 13.8 mph - N/A   Clear
7:00 AM 50 °F 42 °F 67% 30.56 in 12 mi NNW 13.8 mph - -  
7:55 AM 50.0 °F 41.0 °F 71% 30.54 in 6.2 mi NW 11.5 mph - N/A   Partly Cloudy
8:00 AM 50 °F 41 °F 63% 30.56 in 12 mi NW 11.5 mph - -   Scattered Clouds
8:55 AM 48.2 °F 39.2 °F 71% 30.54 in 6.2 mi NW 12.7 mph - N/A   Partly Cloudy
9:00 AM 48 °F 40 °F 65% 30.57 in 12 mi NW 12.7 mph - -   Scattered Clouds
9:55 AM 53.6 °F 44.6 °F 72% 30.57 in - NE 8.1 mph - N/A   Clear
10:55 AM 57.2 °F 48.2 °F 72% 30.54 in - NE 9.2 mph - N/A   Clear
11:00 AM 57 °F 49 °F 67% 30.56 in 12 mi NE 9.2 mph - -  
11:55 AM 57.2 °F 48.2 °F 72% 30.54 in - ENE 12.7 mph - N/A   Clear
12:00 PM 57 °F 49 °F 66% 30.55 in 12 mi ENE 12.7 mph - -  
12:55 PM 57.2 °F 48.2 °F 72% 30.51 in - ENE 15.0 mph - N/A   Clear
1:00 PM 57 °F 48 °F 64% 30.53 in 12 mi ENE 15.0 mph - -  
1:55 PM 57.2 °F 48.2 °F 72% 30.48 in - ENE 18.4 mph - N/A   Clear
2:55 PM 57.2 °F 48.2 °F 72% 30.48 in - ENE 19.6 mph - N/A   Clear
3:55 PM 57.2 °F 46.4 °F 67% 30.48 in - ENE 19.6 mph - N/A   Clear
4:55 PM 55.4 °F 46.4 °F 72% 30.48 in - NE 15.0 mph - N/A   Clear
5:00 PM 56 °F 47 °F 62% 30.50 in 12 mi NE 15.0 mph - -  
5:55 PM 55.4 °F 48.2 °F 77% 30.48 in - NNE 11.5 mph - N/A   Clear
6:00 PM 55 °F 49 °F 73% 30.51 in 12 mi NNE 11.5 mph - -  
6:55 PM 53.6 °F 46.4 °F 77% 30.51 in - North 9.2 mph - N/A   Clear
7:00 PM 53 °F 47 °F 73% 30.52 in 12 mi North 9.2 mph - -  
7:55 PM 51.8 °F 44.6 °F 76% 30.54 in - NNW 9.2 mph - N/A   Clear
8:00 PM 52 °F 44 °F 66% 30.55 in 12 mi NNW 9.2 mph - -  
8:55 PM 51.8 °F 44.6 °F 76% 30.54 in - NW 11.5 mph - N/A   Clear
9:00 PM 51 °F 44 °F 70% 30.55 in 12 mi NW 11.5 mph - -  
9:55 PM 50.0 °F 39.2 °F 66% 30.54 in - NW 13.8 mph - N/A   Clear
10:00 PM 50 °F 40 °F 58% 30.55 in 12 mi NW 13.8 mph - -  
10:55 PM 50.0 °F 39.2 °F 66% 30.51 in - NNW 10.4 mph - N/A   Clear
11:00 PM 50 °F 39 °F 56% 30.55 in 12 mi NNW 10.4 mph - -  
11:55 PM 50.0 °F 37.4 °F 62% 30.51 in - NNW 8.1 mph - N/A   Clear